Probability
23 52 65 68 65 61 61 61 55 55 55 52 52 48 48 42 35 39 35 32 32 29 26 26 29 26 19 13 13 19 13 6 6 3 3 3 3 3 3 6 3 0 6
26 52 68 71 68 68 61 61 52 45 48 52 45 42 39 39 35 35 32 23 26 26 26 23 19 19 13 16 19 13 6 3 3 3 6 3 3 3 0 3 6 3 6
29 52 58 71 65 65 61 58 52 45 48 52 42 42 39 35 32 29 23 19 19 19 19 19 10 3 10 16 13 6 3 0 0 0 0 0 0 0 0 0 0 3 3
42 45 52 68 65 61 58 55 52 45 48 48 42 39 39 39 35 32 23 16 16 19 13 13 10 3 6 6 6 6 0 0 0 0 0 0 0 0 0 0 0 0 3
45 42 52 68 61 58 58 55 48 48 48 42 35 39 39 32 35 29 23 16 13 10 13 10 6 3 3 6 6 0 0 0 0 0 0 0 0 0 0 0 0 0 0
39 45 48 68 55 55 55 55 52 48 45 45 42 42 39 32 26 23 23 10 10 10 6 3 6 6 3 6 3 3 3 0 0 0 0 0 0 0 0 0 0 0 0
32 35 45 61 55 55 55 52 52 45 45 45 35 29 26 23 23 19 13 10 6 6 3 3 0 3 6 6 3 3 3 0 0 0 0 0 0 0 0 0 0 0 0
32 39 45 55 55 55 55 52 48 45 45 39 32 32 29 26 23 16 13 10 6 6 3 0 0 3 3 0 0 0 0 0 0 0 0 0 0 0 0 0 0 0 0
32 35 39 35 45 48 52 45 45 45 39 39 32 32 29 23 23 23 16 16 10 6 3 0 0 0 0 0 0 0 0 0 0 0 0 0 0 0 0 0 0 0 0
35 39 39 32 35 39 32 32 32 32 35 35 29 19 19 16 19 19 13 16 16 6 3 0 0 0 0 0 0 0 0 0 0 0 0 0 0 0 0 0 0 0 3
26 29 35 35 29 26 26 23 23 23 16 19 19 10 13 16 16 13 0 6 13 10 3 0 0 0 0 0 0 0 0 0 0 0 0 0 0 0 0 0 0 0 3
23 26 29 32 35 32 26 26 26 26 16 16 16 19 16 16 13 3 0 0 6 6 3 0 0 0 0 0 0 0 0 0 0 0 0 0 0 0 0 0 3 3 3
19 23 23 26 29 32 29 29 26 26 23 19 16 16 16 16 10 10 10 3 3 0 3 0 0 0 0 0 0 0 0 0 0 0 0 0 0 0 0 0 3 3 3
19 19 23 26 29 29 29 29 26 26 23 16 13 16 13 13 13 10 10 10 13 6 6 6 6 0 0 0 0 0 0 0 0 0 0 0 0 0 0 0 0 0 0
19 19 19 19 26 29 29 32 23 19 16 13 13 13 10 10 10 10 6 10 10 10 6 3 3 3 3 3 0 0 0 0 0 0 0 0 0 0 0 0 0 0 0
16 19 19 19 19 23 29 26 23 19 19 13 13 13 10 13 10 6 6 10 10 10 3 3 3 3 3 3 3 3 0 0 0 0 0 0 0 0 0 0 0 0 0
3 10 13 16 16 16 16 23 16 13 10 10 16 13 10 10 10 6 10 10 6 3 0 0 3 3 0 0 3 3 3 3 0 0 0 0 0 0 0 0 0 0 0
3 10 10 10 10 10 10 16 13 13 6 10 10 6 10 6 3 3 3 0 3 3 3 3 3 3 3 0 0 0 3 3 0 0 0 0 0 0 0 0 0 0 0
3 3 6 6 6 6 6 10 6 6 3 3 3 3 6 6 3 0 0 3 0 0 3 3 3 3 3 3 0 0 3 3 0 0 0 0 0 0 0 0 0 0 0
3 0 3 3 3 3 3 6 6 6 6 6 3 0 0 0 0 0 0 0 0 0 0 0 0 0 3 3 0 0 0 0 0 0 0 0 0 0 0 0 0 0 0
3 3 6 3 3 3 3 3 6 6 6 3 6 0 0 0 0 0 0 0 0 0 0 0 0 0 0 0 0 0 0 0 0 0 0 0 0 0 0 0 0 0 0
3 3 3 3 6 3 3 3 3 3 3 6 3 0 0 0 0 0 0 0 0 0 0 0 0 0 0 0 0 0 0 0 0 0 0 0 0 0 0 0 0 0 0
0 3 3 3 3 3 0 3 3 3 3 0 0 0 0 0 0 0 0 0 0 0 0 0 0 0 0 0 0 0 0 0 0 0 0 0 0 0 0 0 0 0 0
0 0 3 3 3 3 3 3 0 0 0 0 0 0 0 0 0 0 0 0 0 0 0 0 0 0 0 0 0 0 0 0 0 0 0 0 0 0 0 0 0 0 0
0 0 0 3 3 3 3 3 0 0 0 0 0 0 0 0 0 0 0 0 0 0 0 0 0 0 0 0 0 0 0 0 0 0 0 0 0 0 0 0 0 0 0
0 0 0 0 0 0 3 3 3 0 0 0 0 0 0 0 0 0 0 0 0 0 0 0 0 0 0 0 0 0 0 0 0 0 0 0 0 0 0 0 0 0 0
Height
5878 5879 5880 5881 5882 5882 5883 5883 5884 5884 5885 5885 5885 5885 5885 5885 5885 5885 5885 5885 5885 5884 5884 5883 5883 5882 5882 5881 5881 5880 5879 5879 5878 5877 5877 5876 5876 5875 5874 5873 5872 5872 5871
5877 5878 5879 5880 5880 5881 5882 5882 5883 5884 5884 5884 5885 5885 5885 5885 5885 5885 5884 5884 5884 5884 5883 5883 5882 5882 5881 5881 5880 5879 5879 5878 5877 5877 5876 5875 5875 5874 5873 5872 5871 5870 5869
5875 5876 5877 5878 5879 5880 5881 5881 5882 5883 5883 5883 5884 5884 5884 5884 5884 5884 5884 5883 5883 5883 5882 5882 5882 5881 5881 5880 5879 5879 5878 5877 5877 5876 5875 5874 5873 5872 5872 5871 5870 5869 5868
5873 5874 5875 5876 5877 5878 5879 5880 5880 5881 5882 5882 5882 5883 5883 5883 5883 5883 5883 5882 5882 5882 5881 5881 5881 5880 5880 5879 5878 5878 5877 5876 5875 5875 5874 5873 5872 5871 5870 5869 5868 5867 5866
5870 5871 5873 5874 5875 5876 5877 5878 5879 5879 5880 5880 5881 5881 5881 5882 5882 5882 5881 5881 5881 5881 5880 5880 5879 5879 5878 5878 5877 5876 5876 5875 5874 5873 5872 5871 5870 5869 5868 5867 5866 5865 5864
5867 5869 5870 5872 5873 5874 5875 5876 5877 5877 5878 5879 5879 5879 5880 5880 5880 5880 5880 5880 5879 5879 5879 5878 5878 5877 5877 5876 5876 5875 5874 5873 5872 5871 5870 5869 5868 5867 5866 5865 5864 5862 5861
5864 5866 5867 5869 5870 5872 5873 5874 5874 5875 5876 5876 5877 5877 5878 5878 5878 5878 5878 5878 5877 5877 5877 5876 5876 5875 5875 5874 5874 5873 5872 5871 5870 5869 5868 5867 5865 5864 5863 5862 5861 5860 5858
5860 5862 5864 5866 5867 5869 5870 5871 5872 5872 5873 5874 5874 5875 5875 5875 5876 5876 5876 5875 5875 5875 5875 5874 5874 5873 5873 5872 5871 5870 5869 5868 5867 5866 5865 5864 5863 5862 5861 5859 5858 5857 5855
5857 5859 5860 5862 5864 5865 5866 5868 5869 5870 5870 5871 5871 5872 5872 5873 5873 5873 5873 5873 5873 5872 5872 5871 5871 5870 5870 5869 5868 5867 5866 5865 5864 5863 5862 5861 5860 5859 5857 5856 5855 5854 5852
5853 5855 5857 5858 5860 5861 5863 5864 5865 5866 5867 5868 5868 5869 5869 5870 5870 5870 5870 5870 5870 5869 5869 5868 5868 5867 5867 5866 5865 5864 5863 5862 5861 5860 5859 5858 5856 5855 5854 5853 5851 5850 5849
5849 5851 5852 5854 5856 5857 5859 5860 5861 5862 5863 5864 5865 5865 5866 5866 5866 5867 5867 5866 5866 5866 5866 5865 5865 5864 5863 5863 5862 5861 5860 5859 5858 5856 5855 5854 5853 5852 5850 5849 5847 5846 5844
5844 5846 5848 5850 5852 5853 5855 5856 5857 5859 5859 5860 5861 5862 5862 5863 5863 5863 5863 5863 5863 5862 5862 5862 5861 5861 5860 5859 5858 5857 5856 5855 5854 5853 5851 5850 5849 5848 5846 5845 5843 5842 5840
5839 5841 5843 5845 5847 5849 5850 5852 5853 5854 5855 5856 5857 5858 5859 5859 5859 5859 5859 5859 5859 5859 5858 5858 5857 5857 5856 5855 5854 5853 5852 5851 5850 5849 5847 5846 5845 5843 5842 5840 5839 5837 5835
5834 5836 5838 5840 5842 5844 5845 5847 5849 5850 5851 5852 5853 5854 5854 5855 5855 5855 5855 5855 5855 5855 5854 5854 5853 5853 5852 5851 5850 5849 5848 5847 5846 5844 5843 5841 5840 5838 5837 5835 5834 5832 5830
5828 5830 5833 5835 5837 5839 5840 5842 5843 5845 5846 5847 5848 5849 5850 5850 5851 5851 5851 5851 5851 5850 5850 5850 5849 5848 5848 5847 5846 5845 5843 5842 5841 5839 5838 5836 5835 5833 5831 5830 5828 5826 5824
5822 5824 5827 5829 5831 5833 5835 5837 5838 5840 5841 5842 5843 5844 5845 5845 5845 5846 5846 5846 5846 5846 5845 5845 5844 5843 5843 5842 5841 5839 5838 5837 5836 5834 5833 5831 5829 5827 5826 5824 5822 5820 5818
5815 5818 5821 5823 5825 5828 5830 5831 5833 5834 5836 5837 5838 5839 5839 5840 5840 5840 5841 5841 5841 5840 5840 5839 5839 5838 5837 5836 5835 5834 5833 5831 5830 5828 5827 5825 5823 5821 5819 5817 5815 5813 5811
5808 5811 5814 5817 5819 5822 5824 5825 5827 5828 5830 5831 5832 5833 5833 5834 5834 5835 5835 5835 5835 5835 5834 5834 5833 5832 5832 5831 5829 5828 5827 5825 5824 5822 5820 5818 5817 5815 5812 5810 5808 5806 5804
5801 5804 5808 5810 5813 5815 5817 5819 5821 5822 5824 5825 5826 5827 5827 5827 5828 5828 5828 5828 5829 5828 5828 5828 5827 5826 5825 5824 5823 5822 5820 5819 5817 5815 5813 5811 5809 5807 5805 5803 5800 5798 5796
5794 5797 5800 5803 5806 5808 5811 5813 5814 5816 5817 5818 5819 5820 5820 5821 5821 5821 5822 5822 5822 5822 5821 5821 5820 5819 5819 5817 5816 5815 5813 5812 5809 5808 5806 5804 5801 5799 5797 5795 5792 5790 5787
5786 5790 5793 5796 5799 5801 5804 5806 5808 5809 5810 5812 5812 5813 5813 5814 5814 5814 5815 5815 5815 5815 5814 5814 5813 5812 5811 5810 5809 5808 5806 5804 5802 5800 5797 5795 5793 5791 5788 5786 5783 5781 5778
5779 5782 5785 5788 5791 5794 5796 5798 5800 5802 5803 5804 5805 5806 5806 5806 5807 5807 5807 5807 5807 5807 5807 5806 5806 5805 5804 5802 5801 5799 5798 5797 5794 5792 5789 5787 5784 5782 5779 5777 5774 5771 5768
5771 5774 5777 5780 5783 5786 5789 5791 5793 5794 5795 5797 5798 5799 5799 5799 5799 5799 5799 5799 5799 5799 5799 5798 5797 5796 5795 5794 5792 5791 5789 5787 5785 5783 5780 5778 5775 5773 5770 5767 5764 5761 5757
5762 5766 5769 5772 5775 5778 5780 5782 5784 5786 5788 5789 5790 5791 5791 5791 5791 5791 5791 5791 5791 5791 5790 5790 5789 5788 5786 5785 5783 5781 5779 5777 5775 5773 5771 5768 5765 5762 5759 5756 5753 5750 5746
5754 5757 5761 5764 5767 5769 5772 5774 5776 5778 5779 5781 5782 5782 5783 5783 5783 5783 5783 5783 5782 5782 5781 5781 5780 5778 5777 5775 5774 5771 5769 5767 5764 5762 5760 5758 5755 5752 5748 5744 5741 5737 5734
5745 5749 5752 5755 5758 5761 5763 5765 5768 5770 5771 5772 5773 5774 5774 5774 5774 5774 5774 5774 5773 5773 5772 5771 5770 5769 5767 5766 5764 5761 5759 5757 5754 5751 5748 5746 5744 5741 5737 5733 5729 5725 5720
Wind_Speed
11 10 9 9 8 7 6 6 5 4 4 4 3 3 2 2 2 1 0 0 1 1 2 2 3 3 4 4 4 5 5 5 5 5 6 5 6 6 7 7 7 7 8
12 12 11 10 9 8 7 7 6 6 5 5 4 4 4 3 3 2 2 2 2 2 3 3 4 4 4 5 5 6 6 6 6 6 7 7 7 8 8 9 9 9 9
14 13 12 11 10 9 9 8 8 7 7 6 6 5 5 5 4 4 4 4 4 4 4 4 5 5 5 5 6 6 7 7 7 7 7 8 8 9 9 10 10 11 11
16 15 14 13 12 11 10 10 9 9 8 8 8 7 7 6 6 5 5 5 5 6 6 6 6 6 7 7 7 8 8 8 9 9 9 10 10 11 11 12 12 12 13
17 17 16 14 13 13 12 11 10 10 10 10 10 9 8 8 7 7 7 7 7 7 8 8 8 8 9 9 9 9 10 10 10 11 11 12 12 13 13 13 14 14 14
19 18 17 16 15 15 14 13 12 12 11 11 11 10 10 9 9 9 9 9 9 9 10 10 10 10 10 10 10 10 11 11 12 12 12 13 14 14 15 15 15 16 16
20 19 18 17 17 16 15 15 14 13 13 12 12 11 11 11 11 11 11 11 11 11 11 11 11 11 12 12 12 12 12 13 13 13 14 14 15 15 15 16 17 17 17
21 20 19 19 18 17 17 16 16 15 14 14 14 13 13 13 13 13 13 13 13 13 13 12 12 13 13 13 13 14 14 14 14 14 15 15 15 16 16 17 17 18 18
22 21 20 20 19 19 18 18 17 16 16 15 15 15 15 15 15 15 15 15 14 14 14 14 14 14 15 15 15 15 15 16 16 16 16 16 17 17 17 18 18 19 19
23 22 22 21 20 20 19 19 18 18 17 17 17 17 17 16 16 16 16 16 16 16 16 16 16 16 16 16 16 16 16 16 17 17 17 17 18 18 19 19 19 19 20
24 24 23 22 22 21 21 20 20 19 19 18 18 18 18 17 17 17 17 17 17 17 16 16 16 17 17 17 17 17 17 17 18 18 18 19 19 20 20 20 20 21 21
26 25 24 24 23 22 22 22 21 21 20 20 19 19 19 18 18 18 18 18 18 17 17 17 17 17 17 17 18 18 18 18 19 19 20 20 21 21 21 21 22 22 23
27 26 26 25 25 24 23 23 22 22 22 21 21 20 20 20 20 20 19 19 19 19 19 19 18 19 19 19 19 19 19 19 20 21 21 22 22 23 23 23 24 24 25
29 28 27 26 26 25 25 24 24 23 23 23 23 22 22 22 21 21 21 20 20 20 20 20 20 20 20 20 20 20 20 21 21 22 22 23 24 24 25 25 26 27 27
31 30 29 28 28 27 26 26 25 24 24 24 24 24 24 23 23 23 22 22 22 21 21 22 21 22 22 22 22 22 23 23 24 24 24 25 26 26 27 27 28 29 29
32 32 31 30 29 28 28 27 26 26 25 25 25 25 25 25 25 24 24 24 23 23 23 23 23 24 24 24 24 25 25 26 26 26 26 27 27 28 29 29 30 30 31
34 33 32 32 31 30 29 29 28 27 26 26 26 26 26 26 26 26 26 25 25 25 25 25 26 26 26 26 27 27 27 27 27 28 28 29 30 30 30 31 32 32 33
35 35 34 33 32 32 31 30 29 28 28 27 28 28 28 28 28 28 28 27 27 27 27 27 27 28 28 28 28 28 29 29 30 31 31 32 32 32 33 34 34 34 35
37 36 35 34 34 33 32 31 30 30 29 29 29 30 30 30 30 30 30 29 28 29 29 29 29 29 30 30 30 31 31 32 33 34 34 35 35 35 35 36 36 36 36
38 37 36 36 35 34 33 32 31 31 31 31 31 31 31 31 31 31 31 31 31 31 31 31 31 31 31 32 32 33 34 35 36 36 37 37 37 37 37 38 38 39 39
38 37 37 37 36 35 34 34 33 33 32 32 32 32 33 33 32 33 33 33 33 33 33 32 33 33 33 34 34 35 36 37 37 38 38 38 39 39 39 40 41 41 42
39 38 37 37 37 36 36 35 34 34 34 33 33 33 33 33 33 33 34 34 34 34 34 34 34 35 35 36 37 37 38 39 39 39 39 39 40 40 41 42 43 43 44
39 38 38 38 38 37 37 36 35 35 35 34 34 34 34 34 34 34 35 35 36 36 36 36 36 37 37 38 39 40 40 40 40 40 41 41 42 42 43 44 45 46 46
40 39 39 39 39 38 37 37 37 36 35 35 35 35 35 35 35 35 36 36 37 37 37 38 38 39 40 40 40 41 42 42 43 42 43 44 44 44 45 46 46 47 48
41 40 39 39 39 39 39 38 37 37 37 36 36 36 36 36 36 37 38 38 38 39 39 39 40 41 41 41 42 42 43 43 44 45 45 45 45 46 47 47 48 49 50
42 41 41 40 40 40 39 39 38 38 37 38 37 37 37 37 38 38 39 39 40 40 40 41 41 42 42 42 43 43 44 45 46 47 47 47 48 48 49 50 50 51 52
Wind_Direction
211 210 207 204 202 200 199 204 207 210 212 209 206 203 201 199 191 182 176 139 10 2 356 351 349 344 337 329 327 327 324 321 317 316 312 310 308 308 311 311 310 309 308
218 216 214 214 213 214 213 213 217 220 223 226 226 224 225 229 235 244 259 271 288 307 319 322 321 319 318 315 313 312 312 313 311 309 306 304 303 303 304 304 305 304 304
223 222 221 222 222 222 222 222 225 229 234 235 236 239 240 242 248 254 264 273 281 289 297 302 307 307 308 307 307 307 308 309 308 306 304 303 301 301 301 301 302 301 301
227 226 226 227 229 229 228 229 232 236 239 241 242 244 246 249 255 259 264 273 277 281 288 294 297 298 300 303 304 305 305 304 301 300 299 298 297 297 299 299 298 298 299
230 231 231 231 233 233 234 234 236 239 242 244 246 247 250 253 256 260 265 272 278 280 283 288 290 293 295 297 298 300 301 302 300 297 296 295 294 294 296 296 297 296 296
232 232 233 234 234 235 237 240 241 242 243 245 248 249 250 254 258 262 267 273 278 278 280 282 284 288 291 291 293 296 298 298 298 296 294 293 292 293 294 294 295 296 296
233 233 233 234 235 237 239 242 244 245 245 246 248 250 252 256 260 263 268 273 277 278 278 280 282 284 286 288 290 292 293 294 295 295 294 293 293 294 293 294 294 295 296
233 233 233 234 236 239 240 242 244 246 247 247 249 253 255 259 261 264 268 271 274 276 277 278 279 282 284 287 289 289 290 291 293 294 294 294 295 294 295 294 294 295 295
232 233 235 235 237 239 241 242 243 245 246 248 251 254 257 260 262 264 267 270 272 273 275 276 278 280 282 285 287 288 289 290 291 292 293 294 294 295 295 295 294 295 295
233 234 235 236 238 240 241 242 243 245 247 250 253 255 258 262 264 265 268 270 271 272 273 275 277 279 281 284 285 286 288 289 290 291 291 292 293 293 294 294 294 295 295
233 235 235 237 238 240 241 242 244 246 249 252 256 258 260 263 265 266 268 270 270 271 272 273 275 277 279 282 283 285 286 287 288 289 290 291 292 292 292 293 293 293 294
234 235 236 237 238 240 241 243 245 248 250 253 256 259 261 263 265 267 268 269 269 269 271 273 275 276 278 280 282 283 284 285 287 288 289 290 291 291 291 292 293 293 294
234 236 237 238 239 240 242 244 246 248 250 253 256 258 261 263 264 266 267 268 269 269 270 273 275 276 278 280 281 282 283 284 286 287 288 289 289 289 290 291 292 293 293
235 236 238 240 241 242 243 244 246 249 251 253 255 258 260 263 264 266 267 268 268 268 269 272 275 277 279 280 280 281 282 284 286 287 288 289 289 289 290 290 291 292 293
235 237 238 240 242 243 244 245 246 249 251 253 255 257 259 261 263 265 266 267 268 268 269 271 274 277 278 279 280 281 282 284 285 286 288 289 290 290 290 290 291 291 292
235 237 238 240 241 243 244 246 246 248 251 253 256 258 259 260 262 264 265 267 268 268 269 270 272 275 277 278 280 281 282 284 285 286 287 288 290 291 291 291 291 291 291
235 237 239 241 242 243 245 246 247 248 250 253 256 257 259 260 261 262 264 266 267 268 269 270 272 274 276 278 279 280 282 283 284 285 287 288 290 291 291 291 291 291 290
236 238 239 241 242 243 244 246 248 249 251 254 256 258 259 260 261 261 263 266 267 268 268 269 271 274 276 277 278 279 281 282 284 285 286 288 289 290 291 291 291 291 291
236 238 239 240 241 243 244 246 248 250 252 255 258 259 260 261 262 262 264 266 267 267 268 270 271 274 276 277 278 279 281 282 284 285 286 287 288 289 289 289 290 290 291
236 238 239 240 240 242 244 246 248 250 253 255 258 260 261 262 262 263 264 265 266 267 269 270 272 274 276 277 279 280 281 283 284 284 285 286 286 287 288 289 289 289 290
236 237 239 239 240 242 244 247 249 251 254 255 257 260 261 262 263 263 264 265 267 268 269 271 273 274 276 278 279 281 282 283 283 284 285 286 286 287 288 288 288 289 289
235 237 238 240 240 242 244 246 249 252 253 255 257 260 261 262 263 264 265 266 267 268 269 271 273 275 276 278 279 280 282 282 283 284 285 285 286 287 288 288 289 289 289
235 237 238 239 240 242 244 246 248 251 252 255 258 260 262 263 264 265 266 266 268 269 270 272 274 275 277 278 280 281 282 283 283 284 285 286 286 287 288 288 289 289 289
236 237 238 239 241 242 244 246 248 250 253 255 258 259 261 263 264 265 266 267 268 269 271 273 275 276 277 279 281 282 283 284 284 284 286 286 287 288 289 289 289 290 290
236 238 239 240 242 243 245 247 249 251 253 255 258 260 261 263 265 266 267 268 269 270 271 273 275 277 278 279 281 283 283 284 285 286 287 287 288 289 290 290 290 290 291
237 239 240 241 242 244 246 248 250 252 254 256 258 260 261 263 265 266 267 268 270 271 272 274 275 276 278 279 280 282 284 285 286 286 287 287 288 289 290 290 291 291 291